owner,sensor,date,latitude,longitude,vertical_datum,wind_speed,wind_to_direction,wind_speed_of_gust,qcFlag 
DISL,ioos:station:DISL:BSCA:1,2013-04-01T00:00:00Z,30.3288,-87.8293,0.0,3.84,190.7,-9999.0,'1111122,1111122,1111122' 
DISL,ioos:station:DISL:BSCA:1,2013-04-01T00:30:00Z,30.3288,-87.8293,0.0,4.55,201.3,-9999.0,'1111122,1111122,1111122' 
DISL,ioos:station:DISL:BSCA:1,2013-04-01T01:00:00Z,30.3288,-87.8293,0.0,4.3,210.3,-9999.0,'1111122,1111122,1111122' 
DISL,ioos:station:DISL:BSCA:1,2013-04-01T01:30:00Z,30.3288,-87.8293,0.0,6.34,319.4,-9999.0,'1111122,1111122,1111122' 
DISL,ioos:station:DISL:BSCA:1,2013-04-01T02:00:00Z,30.3288,-87.8293,0.0,1.65,79.24,-9999.0,'1111122,1111122,1111122' 
DISL,ioos:station:DISL:BSCA:1,2013-04-01T02:30:00Z,30.3288,-87.8293,0.0,5.08,121.8,-9999.0,'1111122,1111122,1111122' 
DISL,ioos:station:DISL:BSCA:1,2013-04-01T03:00:00Z,30.3288,-87.8293,0.0,4.78,130.9,-9999.0,'1111122,1111122,1111122' 
DISL,ioos:station:DISL:BSCA:1,2013-04-01T03:30:00Z,30.3288,-87.8293,0.0,2.96,150.1,-9999.0,'1111122,1111122,1111122' 
DISL,ioos:station:DISL:BSCA:1,2013-04-01T04:00:00Z,30.3288,-87.8293,0.0,2.78,184.9,-9999.0,'1111122,1111122,1111122' 
DISL,ioos:station:DISL:BSCA:1,2013-04-01T04:30:00Z,30.3288,-87.8293,0.0,2.27,189.5,-9999.0,'1111122,1111122,1111122' 
DISL,ioos:station:DISL:BSCA:1,2013-04-01T05:00:00Z,30.3288,-87.8293,0.0,3.57,224.7,-9999.0,'1111122,1111122,1111122' 
DISL,ioos:station:DISL:BSCA:1,2013-04-01T05:30:00Z,30.3288,-87.8293,0.0,3.09,236.4,-9999.0,'1111122,1111122,1111122' 
DISL,ioos:station:DISL:BSCA:1,2013-04-01T06:00:00Z,30.3288,-87.8293,0.0,2.9,244.1,-9999.0,'1111122,1111122,1111122' 
DISL,ioos:station:DISL:BSCA:1,2013-04-01T06:30:00Z,30.3288,-87.8293,0.0,4.32,229.3,-9999.0,'1111122,1111122,1111122' 
DISL,ioos:station:DISL:BSCA:1,2013-04-01T07:00:00Z,30.3288,-87.8293,0.0,6.0,310.1,-9999.0,'1111122,1111122,1111122' 
DISL,ioos:station:DISL:BSCA:1,2013-04-01T07:30:00Z,30.3288,-87.8293,0.0,5.41,319.7,-9999.0,'1111122,1111122,1111122' 
DISL,ioos:station:DISL:BSCA:1,2013-04-01T08:00:00Z,30.3288,-87.8293,0.0,3.62,309.8,-9999.0,'1111122,1111122,1111122' 
DISL,ioos:station:DISL:BSCA:1,2013-04-01T08:30:00Z,30.3288,-87.8293,0.0,3.66,309.7,-9999.0,'1111122,1111122,1111122' 
DISL,ioos:station:DISL:BSCA:1,2013-04-01T09:00:00Z,30.3288,-87.8293,0.0,3.27,297.3,-9999.0,'1111122,1111122,1111122' 
DISL,ioos:station:DISL:BSCA:1,2013-04-01T09:30:00Z,30.3288,-87.8293,0.0,3.99,307.8,-9999.0,'1111122,1111122,1111122' 
DISL,ioos:station:DISL:BSCA:1,2013-04-01T10:00:00Z,30.3288,-87.8293,0.0,3.98,273.4,-9999.0,'1111122,1111122,1111122' 
DISL,ioos:station:DISL:BSCA:1,2013-04-01T10:30:00Z,30.3288,-87.8293,0.0,5.12,277.6,-9999.0,'1111122,1111122,1111122' 
DISL,ioos:station:DISL:BSCA:1,2013-04-01T11:00:00Z,30.3288,-87.8293,0.0,5.1,299.4,-9999.0,'1111122,1111122,1111122' 
DISL,ioos:station:DISL:BSCA:1,2013-04-01T11:30:00Z,30.3288,-87.8293,0.0,6.2,312.6,-9999.0,'1111122,1111122,1111122' 
DISL,ioos:station:DISL:BSCA:1,2013-04-01T12:00:00Z,30.3288,-87.8293,0.0,5.13,308.2,-9999.0,'1111122,1111122,1111122' 
DISL,ioos:station:DISL:BSCA:1,2013-04-01T12:30:00Z,30.3288,-87.8293,0.0,5.11,304.7,-9999.0,'1111122,1111122,1111122' 
DISL,ioos:station:DISL:BSCA:1,2013-04-01T13:00:00Z,30.3288,-87.8293,0.0,5.94,315.2,-9999.0,'1111122,1111122,1111122' 
DISL,ioos:station:DISL:BSCA:1,2013-04-01T13:30:00Z,30.3288,-87.8293,0.0,5.31,324.3,-9999.0,'1111122,1111122,1111122' 
DISL,ioos:station:DISL:BSCA:1,2013-04-01T14:00:00Z,30.3288,-87.8293,0.0,4.74,326.4,-9999.0,'1111122,1111122,1111122' 
DISL,ioos:station:DISL:BSCA:1,2013-04-01T14:30:00Z,30.3288,-87.8293,0.0,5.57,338.7,-9999.0,'1111122,1111122,1111122' 
DISL,ioos:station:DISL:BSCA:1,2013-04-01T15:00:00Z,30.3288,-87.8293,0.0,4.18,332.4,-9999.0,'1111122,1111122,1111122' 
DISL,ioos:station:DISL:BSCA:1,2013-04-01T15:30:00Z,30.3288,-87.8293,0.0,4.06,332.7,-9999.0,'1111122,1111122,1111122' 
DISL,ioos:station:DISL:BSCA:1,2013-04-01T16:00:00Z,30.3288,-87.8293,0.0,5.19,318.9,-9999.0,'1111122,1111122,1111122' 
DISL,ioos:station:DISL:BSCA:1,2013-04-01T16:30:00Z,30.3288,-87.8293,0.0,6.27,305.5,-9999.0,'1111122,1111122,1111122' 
DISL,ioos:station:DISL:BSCA:1,2013-04-01T17:00:00Z,30.3288,-87.8293,0.0,6.54,307.2,-9999.0,'1111122,1111122,1111122' 
DISL,ioos:station:DISL:BSCA:1,2013-04-01T17:30:00Z,30.3288,-87.8293,0.0,5.04,341.8,-9999.0,'1111122,1111122,1111122' 
DISL,ioos:station:DISL:BSCA:1,2013-04-01T18:00:00Z,30.3288,-87.8293,0.0,6.55,314.8,-9999.0,'1111122,1111122,1111122' 
DISL,ioos:station:DISL:BSCA:1,2013-04-01T18:30:00Z,30.3288,-87.8293,0.0,6.71,307.9,-9999.0,'1111122,1111122,1111122' 
DISL,ioos:station:DISL:BSCA:1,2013-04-01T19:00:00Z,30.3288,-87.8293,0.0,6.7,311.7,-9999.0,'1111122,1111122,1111122' 
DISL,ioos:station:DISL:BSCA:1,2013-04-01T19:30:00Z,30.3288,-87.8293,0.0,5.51,313.2,-9999.0,'1111122,1111122,1111122' 
DISL,ioos:station:DISL:BSCA:1,2013-04-01T20:00:00Z,30.3288,-87.8293,0.0,7.47,299.4,-9999.0,'1111122,1111122,1111122' 
DISL,ioos:station:DISL:BSCA:1,2013-04-01T20:30:00Z,30.3288,-87.8293,0.0,7.4,305.5,-9999.0,'1111122,1111122,1111122' 
DISL,ioos:station:DISL:BSCA:1,2013-04-01T21:00:00Z,30.3288,-87.8293,0.0,6.23,300.1,-9999.0,'1111122,1111122,1111122' 
DISL,ioos:station:DISL:BSCA:1,2013-04-01T21:30:00Z,30.3288,-87.8293,0.0,6.16,298.9,-9999.0,'1111122,1111122,1111122' 
DISL,ioos:station:DISL:BSCA:1,2013-04-01T22:00:00Z,30.3288,-87.8293,0.0,5.31,301.1,-9999.0,'1111122,1111122,1111122' 
DISL,ioos:station:DISL:BSCA:1,2013-04-01T22:30:00Z,30.3288,-87.8293,0.0,3.8,313.3,-9999.0,'1111122,1111122,1111122' 
DISL,ioos:station:DISL:BSCA:1,2013-04-01T23:00:00Z,30.3288,-87.8293,0.0,3.44,322.8,-9999.0,'1111122,1111122,1111122' 
DISL,ioos:station:DISL:BSCA:1,2013-04-01T23:30:00Z,30.3288,-87.8293,0.0,3.6,334.3,-9999.0,'1111122,1111122,1111122' 
DISL,ioos:station:DISL:BSCA:1,2013-04-02T00:00:00Z,30.3288,-87.8293,0.0,4.11,345.7,-9999.0,'1111122,1111122,1111122' 
DISL,ioos:station:DISL:BSCA:1,2013-04-02T00:30:00Z,30.3288,-87.8293,0.0,3.39,338.1,-9999.0,'1111122,1111122,1111122' 
DISL,ioos:station:DISL:BSCA:1,2013-04-02T01:00:00Z,30.3288,-87.8293,0.0,4.02,351.1,-9999.0,'1111122,1111122,1111122' 
DISL,ioos:station:DISL:BSCA:1,2013-04-02T01:30:00Z,30.3288,-87.8293,0.0,3.81,8.08,-9999.0,'1111122,1111122,1111122' 
DISL,ioos:station:DISL:BSCA:1,2013-04-02T02:00:00Z,30.3288,-87.8293,0.0,3.75,14.44,-9999.0,'1111122,1111122,1111122' 
DISL,ioos:station:DISL:BSCA:1,2013-04-02T02:30:00Z,30.3288,-87.8293,0.0,3.35,18.64,-9999.0,'1111122,1111122,1111122' 
DISL,ioos:station:DISL:BSCA:1,2013-04-02T03:00:00Z,30.3288,-87.8293,0.0,3.07,36.18,-9999.0,'1111122,1111122,1111122' 
DISL,ioos:station:DISL:BSCA:1,2013-04-02T03:30:00Z,30.3288,-87.8293,0.0,3.02,34.64,-9999.0,'1111122,1111122,1111122' 
DISL,ioos:station:DISL:BSCA:1,2013-04-02T04:00:00Z,30.3288,-87.8293,0.0,2.62,47.04,-9999.0,'1111122,1111122,1111122' 
DISL,ioos:station:DISL:BSCA:1,2013-04-02T04:30:00Z,30.3288,-87.8293,0.0,2.4,39.93,-9999.0,'1111122,1111122,1111122' 
DISL,ioos:station:DISL:BSCA:1,2013-04-02T05:00:00Z,30.3288,-87.8293,0.0,2.22,35.88,-9999.0,'1111122,1111122,1111122' 
DISL,ioos:station:DISL:BSCA:1,2013-04-02T05:30:00Z,30.3288,-87.8293,0.0,1.5,41.4,-9999.0,'1111122,1111122,1111122' 
DISL,ioos:station:DISL:BSCA:1,2013-04-02T06:00:00Z,30.3288,-87.8293,0.0,1.43,43.46,-9999.0,'1111122,1111122,1111122' 
DISL,ioos:station:DISL:BSCA:1,2013-04-02T06:30:00Z,30.3288,-87.8293,0.0,1.23,108.7,-9999.0,'1111122,1111122,1111122' 
DISL,ioos:station:DISL:BSCA:1,2013-04-02T07:00:00Z,30.3288,-87.8293,0.0,1.01,65.43,-9999.0,'1111122,1111122,1111122' 
DISL,ioos:station:DISL:BSCA:1,2013-04-02T07:30:00Z,30.3288,-87.8293,0.0,1.3,26.36,-9999.0,'1111122,1111122,1111122' 
DISL,ioos:station:DISL:BSCA:1,2013-04-02T08:00:00Z,30.3288,-87.8293,0.0,2.42,350.3,-9999.0,'1111122,1111122,1111122' 
DISL,ioos:station:DISL:BSCA:1,2013-04-02T08:30:00Z,30.3288,-87.8293,0.0,1.63,12.9,-9999.0,'1111122,1111122,1111122' 
DISL,ioos:station:DISL:BSCA:1,2013-04-02T09:00:00Z,30.3288,-87.8293,0.0,1.32,21.34,-9999.0,'1111122,1111122,1111122' 
DISL,ioos:station:DISL:BSCA:1,2013-04-02T09:30:00Z,30.3288,-87.8293,0.0,1.78,14.22,-9999.0,'1111122,1111122,1111122' 
DISL,ioos:station:DISL:BSCA:1,2013-04-02T10:00:00Z,30.3288,-87.8293,0.0,1.75,43.58,-9999.0,'1111122,1111122,1111122' 
DISL,ioos:station:DISL:BSCA:1,2013-04-02T10:30:00Z,30.3288,-87.8293,0.0,2.7,39.94,-9999.0,'1111122,1111122,1111122' 
DISL,ioos:station:DISL:BSCA:1,2013-04-02T11:00:00Z,30.3288,-87.8293,0.0,2.24,57.89,-9999.0,'1111122,1111122,1111122' 
DISL,ioos:station:DISL:BSCA:1,2013-04-02T11:30:00Z,30.3288,-87.8293,0.0,2.21,55.31,-9999.0,'1111122,1111122,1111122' 
DISL,ioos:station:DISL:BSCA:1,2013-04-02T12:00:00Z,30.3288,-87.8293,0.0,3.85,41.79,-9999.0,'1111122,1111122,1111122' 
DISL,ioos:station:DISL:BSCA:1,2013-04-02T12:30:00Z,30.3288,-87.8293,0.0,3.68,38.68,-9999.0,'1111122,1111122,1111122' 
DISL,ioos:station:DISL:BSCA:1,2013-04-02T13:00:00Z,30.3288,-87.8293,0.0,4.02,36.45,-9999.0,'1111122,1111122,1111122' 
DISL,ioos:station:DISL:BSCA:1,2013-04-02T13:30:00Z,30.3288,-87.8293,0.0,4.3,47.65,-9999.0,'1111122,1111122,1111122' 
DISL,ioos:station:DISL:BSCA:1,2013-04-02T14:00:00Z,30.3288,-87.8293,0.0,4.32,49.35,-9999.0,'1111122,1111122,1111122' 
DISL,ioos:station:DISL:BSCA:1,2013-04-02T14:30:00Z,30.3288,-87.8293,0.0,3.45,76.54,-9999.0,'1111122,1111122,1111122' 
DISL,ioos:station:DISL:BSCA:1,2013-04-02T15:00:00Z,30.3288,-87.8293,0.0,2.79,86.2,-9999.0,'1111122,1111122,1111122' 
DISL,ioos:station:DISL:BSCA:1,2013-04-02T15:30:00Z,30.3288,-87.8293,0.0,2.81,134.1,-9999.0,'1111122,1111122,1111122' 
DISL,ioos:station:DISL:BSCA:1,2013-04-02T16:00:00Z,30.3288,-87.8293,0.0,3.43,121.3,-9999.0,'1111122,1111122,1111122' 
DISL,ioos:station:DISL:BSCA:1,2013-04-02T16:30:00Z,30.3288,-87.8293,0.0,6.27,128.8,-9999.0,'1111122,1111122,1111122' 
DISL,ioos:station:DISL:BSCA:1,2013-04-02T17:00:00Z,30.3288,-87.8293,0.0,6.22,132.7,-9999.0,'1111122,1111122,1111122' 
DISL,ioos:station:DISL:BSCA:1,2013-04-02T17:30:00Z,30.3288,-87.8293,0.0,4.71,135.2,-9999.0,'1111122,1111122,1111122' 
DISL,ioos:station:DISL:BSCA:1,2013-04-02T18:00:00Z,30.3288,-87.8293,0.0,3.98,133.1,-9999.0,'1111122,1111122,1111122' 
DISL,ioos:station:DISL:BSCA:1,2013-04-02T18:30:00Z,30.3288,-87.8293,0.0,3.67,151.0,-9999.0,'1111122,1111122,1111122' 
DISL,ioos:station:DISL:BSCA:1,2013-04-02T19:00:00Z,30.3288,-87.8293,0.0,4.13,160.4,-9999.0,'1111122,1111122,1111122' 
DISL,ioos:station:DISL:BSCA:1,2013-04-02T19:30:00Z,30.3288,-87.8293,0.0,4.12,159.7,-9999.0,'1111122,1111122,1111122' 
DISL,ioos:station:DISL:BSCA:1,2013-04-02T20:00:00Z,30.3288,-87.8293,0.0,3.62,152.7,-9999.0,'1111122,1111122,1111122' 
DISL,ioos:station:DISL:BSCA:1,2013-04-02T20:30:00Z,30.3288,-87.8293,0.0,3.08,158.8,-9999.0,'1111122,1111122,1111122' 
DISL,ioos:station:DISL:BSCA:1,2013-04-02T21:00:00Z,30.3288,-87.8293,0.0,4.28,153.1,-9999.0,'1111122,1111122,1111122' 
DISL,ioos:station:DISL:BSCA:1,2013-04-02T21:30:00Z,30.3288,-87.8293,0.0,2.81,154.5,-9999.0,'1111122,1111122,1111122' 
DISL,ioos:station:DISL:BSCA:1,2013-04-02T22:00:00Z,30.3288,-87.8293,0.0,2.74,158.7,-9999.0,'1111122,1111122,1111122' 
DISL,ioos:station:DISL:BSCA:1,2013-04-02T22:30:00Z,30.3288,-87.8293,0.0,3.57,145.9,-9999.0,'1111122,1111122,1111122' 
DISL,ioos:station:DISL:BSCA:1,2013-04-02T23:00:00Z,30.3288,-87.8293,0.0,3.58,134.6,-9999.0,'1111122,1111122,1111122' 
DISL,ioos:station:DISL:BSCA:1,2013-04-02T23:30:00Z,30.3288,-87.8293,0.0,3.96,135.3,-9999.0,'1111122,1111122,1111122' 
DISL,ioos:station:DISL:BSCA:1,2013-04-03T00:00:00Z,30.3288,-87.8293,0.0,4.94,115.6,-9999.0,'1111122,1111122,1111122' 
DISL,ioos:station:DISL:BSCA:1,2013-04-03T00:30:00Z,30.3288,-87.8293,0.0,5.31,118.3,-9999.0,'1111122,1111122,1111122' 
DISL,ioos:station:DISL:BSCA:1,2013-04-03T01:00:00Z,30.3288,-87.8293,0.0,3.13,83.6,-9999.0,'1111122,1111122,1111122' 
DISL,ioos:station:DISL:BSCA:1,2013-04-03T01:30:00Z,30.3288,-87.8293,0.0,2.57,94.1,-9999.0,'1111122,1111122,1111122' 
DISL,ioos:station:DISL:BSCA:1,2013-04-03T02:00:00Z,30.3288,-87.8293,0.0,3.1,113.8,-9999.0,'1111122,1111122,1111122' 
DISL,ioos:station:DISL:BSCA:1,2013-04-03T02:30:00Z,30.3288,-87.8293,0.0,3.26,109.6,-9999.0,'1111122,1111122,1111122' 
DISL,ioos:station:DISL:BSCA:1,2013-04-03T03:00:00Z,30.3288,-87.8293,0.0,3.32,109.6,-9999.0,'1111122,1111122,1111122' 
DISL,ioos:station:DISL:BSCA:1,2013-04-03T03:30:00Z,30.3288,-87.8293,0.0,3.46,91.7,-9999.0,'1111122,1111122,1111122' 
DISL,ioos:station:DISL:BSCA:1,2013-04-03T04:00:00Z,30.3288,-87.8293,0.0,3.36,111.1,-9999.0,'1111122,1111122,1111122' 
DISL,ioos:station:DISL:BSCA:1,2013-04-03T04:30:00Z,30.3288,-87.8293,0.0,3.22,110.2,-9999.0,'1111122,1111122,1111122' 
DISL,ioos:station:DISL:BSCA:1,2013-04-03T05:00:00Z,30.3288,-87.8293,0.0,2.71,98.9,-9999.0,'1111122,1111122,1111122' 
DISL,ioos:station:DISL:BSCA:1,2013-04-03T05:30:00Z,30.3288,-87.8293,0.0,2.84,83.0,-9999.0,'1111122,1111122,1111122' 
DISL,ioos:station:DISL:BSCA:1,2013-04-03T06:00:00Z,30.3288,-87.8293,0.0,3.52,50.6,-9999.0,'1111122,1111122,1111122' 
DISL,ioos:station:DISL:BSCA:1,2013-04-03T06:30:00Z,30.3288,-87.8293,0.0,4.68,61.65,-9999.0,'1111122,1111122,1111122' 
DISL,ioos:station:DISL:BSCA:1,2013-04-03T07:00:00Z,30.3288,-87.8293,0.0,4.45,87.3,-9999.0,'1111122,1111122,1111122' 
DISL,ioos:station:DISL:BSCA:1,2013-04-03T07:30:00Z,30.3288,-87.8293,0.0,3.47,74.45,-9999.0,'1111122,1111122,1111122' 
DISL,ioos:station:DISL:BSCA:1,2013-04-03T08:00:00Z,30.3288,-87.8293,0.0,3.84,77.01,-9999.0,'1111122,1111122,1111122' 
DISL,ioos:station:DISL:BSCA:1,2013-04-03T08:30:00Z,30.3288,-87.8293,0.0,4.38,55.89,-9999.0,'1111122,1111122,1111122' 
DISL,ioos:station:DISL:BSCA:1,2013-04-03T09:00:00Z,30.3288,-87.8293,0.0,4.16,64.21,-9999.0,'1111122,1111122,1111122' 
DISL,ioos:station:DISL:BSCA:1,2013-04-03T09:30:00Z,30.3288,-87.8293,0.0,4.69,61.22,-9999.0,'1111122,1111122,1111122' 
DISL,ioos:station:DISL:BSCA:1,2013-04-03T10:00:00Z,30.3288,-87.8293,0.0,5.2,59.47,-9999.0,'1111122,1111122,1111122' 
DISL,ioos:station:DISL:BSCA:1,2013-04-03T10:30:00Z,30.3288,-87.8293,0.0,6.29,43.33,-9999.0,'1111122,1111122,1111122' 
DISL,ioos:station:DISL:BSCA:1,2013-04-03T11:00:00Z,30.3288,-87.8293,0.0,7.14,38.42,-9999.0,'1111122,1111122,1111122' 
DISL,ioos:station:DISL:BSCA:1,2013-04-03T11:30:00Z,30.3288,-87.8293,0.0,6.7,41.63,-9999.0,'1111122,1111122,1111122' 
DISL,ioos:station:DISL:BSCA:1,2013-04-03T12:00:00Z,30.3288,-87.8293,0.0,7.26,30.38,-9999.0,'1111122,1111122,1111122' 
DISL,ioos:station:DISL:BSCA:1,2013-04-03T12:30:00Z,30.3288,-87.8293,0.0,6.4,38.54,-9999.0,'1111122,1111122,1111122' 
DISL,ioos:station:DISL:BSCA:1,2013-04-03T13:00:00Z,30.3288,-87.8293,0.0,8.03,41.4,-9999.0,'1111122,1111122,1111122' 
DISL,ioos:station:DISL:BSCA:1,2013-04-03T13:30:00Z,30.3288,-87.8293,0.0,8.28,62.97,-9999.0,'1111122,1111122,1111122' 
DISL,ioos:station:DISL:BSCA:1,2013-04-03T14:00:00Z,30.3288,-87.8293,0.0,8.56,48.9,-9999.0,'1111122,1111122,1111122' 
DISL,ioos:station:DISL:BSCA:1,2013-04-03T14:30:00Z,30.3288,-87.8293,0.0,7.64,56.39,-9999.0,'1111122,1111122,1111122' 
DISL,ioos:station:DISL:BSCA:1,2013-04-03T15:00:00Z,30.3288,-87.8293,0.0,7.84,50.16,-9999.0,'1111122,1111122,1111122' 
DISL,ioos:station:DISL:BSCA:1,2013-04-03T15:30:00Z,30.3288,-87.8293,0.0,7.35,49.53,-9999.0,'1111122,1111122,1111122' 
DISL,ioos:station:DISL:BSCA:1,2013-04-03T16:00:00Z,30.3288,-87.8293,0.0,8.02,34.09,-9999.0,'1111122,1111122,1111122' 
DISL,ioos:station:DISL:BSCA:1,2013-04-03T16:30:00Z,30.3288,-87.8293,0.0,8.25,32.23,-9999.0,'1111122,1111122,1111122' 
DISL,ioos:station:DISL:BSCA:1,2013-04-03T17:00:00Z,30.3288,-87.8293,0.0,7.95,34.29,-9999.0,'1111122,1111122,1111122' 
DISL,ioos:station:DISL:BSCA:1,2013-04-03T17:30:00Z,30.3288,-87.8293,0.0,7.32,48.33,-9999.0,'1111122,1111122,1111122' 
DISL,ioos:station:DISL:BSCA:1,2013-04-03T18:00:00Z,30.3288,-87.8293,0.0,7.07,41.44,-9999.0,'1111122,1111122,1111122' 
DISL,ioos:station:DISL:BSCA:1,2013-04-03T18:30:00Z,30.3288,-87.8293,0.0,7.32,29.33,-9999.0,'1111122,1111122,1111122' 
DISL,ioos:station:DISL:BSCA:1,2013-04-03T19:00:00Z,30.3288,-87.8293,0.0,12.13,89.5,-9999.0,'1111122,1111122,1111122' 
DISL,ioos:station:DISL:BSCA:1,2013-04-03T19:30:00Z,30.3288,-87.8293,0.0,11.68,72.93,-9999.0,'1111122,1111122,1111122' 
DISL,ioos:station:DISL:BSCA:1,2013-04-03T20:00:00Z,30.3288,-87.8293,0.0,11.4,78.56,-9999.0,'1111122,1111122,1111122' 
DISL,ioos:station:DISL:BSCA:1,2013-04-03T20:30:00Z,30.3288,-87.8293,0.0,12.09,88.1,-9999.0,'1111122,1111122,1111122' 
DISL,ioos:station:DISL:BSCA:1,2013-04-03T21:00:00Z,30.3288,-87.8293,0.0,8.93,60.58,-9999.0,'1111122,1111122,1111122' 
DISL,ioos:station:DISL:BSCA:1,2013-04-03T21:30:00Z,30.3288,-87.8293,0.0,6.31,58.71,-9999.0,'1111122,1111122,1111122' 
DISL,ioos:station:DISL:BSCA:1,2013-04-03T22:00:00Z,30.3288,-87.8293,0.0,5.87,65.82,-9999.0,'1111122,1111122,1111122' 
DISL,ioos:station:DISL:BSCA:1,2013-04-03T22:30:00Z,30.3288,-87.8293,0.0,6.42,54.17,-9999.0,'1111122,1111122,1111122' 
DISL,ioos:station:DISL:BSCA:1,2013-04-03T23:00:00Z,30.3288,-87.8293,0.0,5.05,44.98,-9999.0,'1111122,1111122,1111122' 
DISL,ioos:station:DISL:BSCA:1,2013-04-03T23:30:00Z,30.3288,-87.8293,0.0,4.6,358.1,-9999.0,'1111122,1111122,1111122' 
DISL,ioos:station:DISL:BSCA:1,2013-04-04T00:00:00Z,30.3288,-87.8293,0.0,4.54,354.9,-9999.0,'1111122,1111122,1111122' 
DISL,ioos:station:DISL:BSCA:1,2013-04-04T00:30:00Z,30.3288,-87.8293,0.0,4.75,21.73,-9999.0,'1111122,1111122,1111122' 
DISL,ioos:station:DISL:BSCA:1,2013-04-04T01:00:00Z,30.3288,-87.8293,0.0,5.51,11.33,-9999.0,'1111122,1111122,1111122' 
DISL,ioos:station:DISL:BSCA:1,2013-04-04T01:30:00Z,30.3288,-87.8293,0.0,5.57,24.69,-9999.0,'1111122,1111122,1111122' 
DISL,ioos:station:DISL:BSCA:1,2013-04-04T02:00:00Z,30.3288,-87.8293,0.0,6.55,31.38,-9999.0,'1111122,1111122,1111122' 
DISL,ioos:station:DISL:BSCA:1,2013-04-04T02:30:00Z,30.3288,-87.8293,0.0,7.35,31.96,-9999.0,'1111122,1111122,1111122' 
DISL,ioos:station:DISL:BSCA:1,2013-04-04T03:00:00Z,30.3288,-87.8293,0.0,5.43,19.53,-9999.0,'1111122,1111122,1111122' 
DISL,ioos:station:DISL:BSCA:1,2013-04-04T03:30:00Z,30.3288,-87.8293,0.0,4.23,22.33,-9999.0,'1111122,1111122,1111122' 
DISL,ioos:station:DISL:BSCA:1,2013-04-04T04:00:00Z,30.3288,-87.8293,0.0,5.25,56.3,-9999.0,'1111122,1111122,1111122' 
DISL,ioos:station:DISL:BSCA:1,2013-04-04T04:30:00Z,30.3288,-87.8293,0.0,5.53,46.56,-9999.0,'1111122,1111122,1111122' 
DISL,ioos:station:DISL:BSCA:1,2013-04-04T05:00:00Z,30.3288,-87.8293,0.0,5.28,43.22,-9999.0,'1111122,1111122,1111122' 
DISL,ioos:station:DISL:BSCA:1,2013-04-04T05:30:00Z,30.3288,-87.8293,0.0,5.31,49.57,-9999.0,'1111122,1111122,1111122' 
DISL,ioos:station:DISL:BSCA:1,2013-04-04T06:00:00Z,30.3288,-87.8293,0.0,3.1,19.06,-9999.0,'1111122,1111122,1111122' 
DISL,ioos:station:DISL:BSCA:1,2013-04-04T06:30:00Z,30.3288,-87.8293,0.0,3.91,349.1,-9999.0,'1111122,1111122,1111122' 
DISL,ioos:station:DISL:BSCA:1,2013-04-04T07:00:00Z,30.3288,-87.8293,0.0,3.11,342.0,-9999.0,'1111122,1111122,1111122' 
DISL,ioos:station:DISL:BSCA:1,2013-04-04T07:30:00Z,30.3288,-87.8293,0.0,3.11,351.0,-9999.0,'1111122,1111122,1111122' 
DISL,ioos:station:DISL:BSCA:1,2013-04-04T08:00:00Z,30.3288,-87.8293,0.0,2.82,10.73,-9999.0,'1111122,1111122,1111122' 
DISL,ioos:station:DISL:BSCA:1,2013-04-04T08:30:00Z,30.3288,-87.8293,0.0,1.98,36.02,-9999.0,'1111122,1111122,1111122' 
DISL,ioos:station:DISL:BSCA:1,2013-04-04T09:00:00Z,30.3288,-87.8293,0.0,2.34,28.01,-9999.0,'1111122,1111122,1111122' 
DISL,ioos:station:DISL:BSCA:1,2013-04-04T09:30:00Z,30.3288,-87.8293,0.0,1.32,34.1,-9999.0,'1111122,1111122,1111122' 
DISL,ioos:station:DISL:BSCA:1,2013-04-04T10:00:00Z,30.3288,-87.8293,0.0,0.68,40.06,-9999.0,'1111122,1111122,1111122' 
DISL,ioos:station:DISL:BSCA:1,2013-04-04T10:30:00Z,30.3288,-87.8293,0.0,1.48,10.1,-9999.0,'1111122,1111122,1111122' 
DISL,ioos:station:DISL:BSCA:1,2013-04-04T11:00:00Z,30.3288,-87.8293,0.0,0.78,10.53,-9999.0,'1111122,1111122,1111122' 
DISL,ioos:station:DISL:BSCA:1,2013-04-04T11:30:00Z,30.3288,-87.8293,0.0,1.16,353.9,-9999.0,'1111122,1111122,1111122' 
DISL,ioos:station:DISL:BSCA:1,2013-04-04T12:00:00Z,30.3288,-87.8293,0.0,1.04,316.0,-9999.0,'1111122,1111122,1111122' 
DISL,ioos:station:DISL:BSCA:1,2013-04-04T12:30:00Z,30.3288,-87.8293,0.0,2.1,301.0,-9999.0,'1111122,1111122,1111122' 
DISL,ioos:station:DISL:BSCA:1,2013-04-04T13:00:00Z,30.3288,-87.8293,0.0,4.18,321.6,-9999.0,'1111122,1111122,1111122' 
DISL,ioos:station:DISL:BSCA:1,2013-04-04T13:30:00Z,30.3288,-87.8293,0.0,3.73,312.1,-9999.0,'1111122,1111122,1111122' 
DISL,ioos:station:DISL:BSCA:1,2013-04-04T14:00:00Z,30.3288,-87.8293,0.0,5.33,307.5,-9999.0,'1111122,1111122,1111122' 
DISL,ioos:station:DISL:BSCA:1,2013-04-04T14:30:00Z,30.3288,-87.8293,0.0,4.89,309.3,-9999.0,'1111122,1111122,1111122' 
DISL,ioos:station:DISL:BSCA:1,2013-04-04T15:00:00Z,30.3288,-87.8293,0.0,4.34,317.0,-9999.0,'1111122,1111122,1111122' 
DISL,ioos:station:DISL:BSCA:1,2013-04-04T15:30:00Z,30.3288,-87.8293,0.0,3.49,313.7,-9999.0,'1111122,1111122,1111122' 
DISL,ioos:station:DISL:BSCA:1,2013-04-04T16:00:00Z,30.3288,-87.8293,0.0,2.71,303.8,-9999.0,'1111122,1111122,1111122' 
DISL,ioos:station:DISL:BSCA:1,2013-04-04T16:30:00Z,30.3288,-87.8293,0.0,2.14,293.8,-9999.0,'1111122,1111122,1111122' 
DISL,ioos:station:DISL:BSCA:1,2013-04-04T17:00:00Z,30.3288,-87.8293,0.0,2.2,297.8,-9999.0,'1111122,1111122,1111122' 
DISL,ioos:station:DISL:BSCA:1,2013-04-04T17:30:00Z,30.3288,-87.8293,0.0,2.64,282.2,-9999.0,'1111122,1111122,1111122' 
DISL,ioos:station:DISL:BSCA:1,2013-04-04T18:00:00Z,30.3288,-87.8293,0.0,5.7,258.6,-9999.0,'1111122,1111122,1111122' 
DISL,ioos:station:DISL:BSCA:1,2013-04-04T18:30:00Z,30.3288,-87.8293,0.0,7.2,254.3,-9999.0,'1111122,1111122,1111122' 
DISL,ioos:station:DISL:BSCA:1,2013-04-04T19:00:00Z,30.3288,-87.8293,0.0,7.45,254.2,-9999.0,'1111122,1111122,1111122' 
DISL,ioos:station:DISL:BSCA:1,2013-04-04T19:30:00Z,30.3288,-87.8293,0.0,5.56,253.1,-9999.0,'1111122,1111122,1111122' 
DISL,ioos:station:DISL:BSCA:1,2013-04-04T20:00:00Z,30.3288,-87.8293,0.0,4.71,252.5,-9999.0,'1111122,1111122,1111122' 
DISL,ioos:station:DISL:BSCA:1,2013-04-04T20:30:00Z,30.3288,-87.8293,0.0,5.54,242.6,-9999.0,'1111122,1111122,1111122' 
DISL,ioos:station:DISL:BSCA:1,2013-04-04T21:00:00Z,30.3288,-87.8293,0.0,6.64,251.1,-9999.0,'1111122,1111122,1111122' 
DISL,ioos:station:DISL:BSCA:1,2013-04-04T21:30:00Z,30.3288,-87.8293,0.0,6.76,261.0,-9999.0,'1111122,1111122,1111122' 
DISL,ioos:station:DISL:BSCA:1,2013-04-04T22:00:00Z,30.3288,-87.8293,0.0,5.91,257.5,-9999.0,'1111122,1111122,1111122' 
DISL,ioos:station:DISL:BSCA:1,2013-04-04T22:30:00Z,30.3288,-87.8293,0.0,5.93,259.3,-9999.0,'1111122,1111122,1111122' 
DISL,ioos:station:DISL:BSCA:1,2013-04-04T23:00:00Z,30.3288,-87.8293,0.0,5.79,249.9,-9999.0,'1111122,1111122,1111122' 
DISL,ioos:station:DISL:BSCA:1,2013-04-04T23:30:00Z,30.3288,-87.8293,0.0,6.6,253.9,-9999.0,'1111122,1111122,1111122' 
DISL,ioos:station:DISL:BSCA:1,2013-04-05T00:00:00Z,30.3288,-87.8293,0.0,6.67,260.9,-9999.0,'1111122,1111122,1111122' 
DISL,ioos:station:DISL:BSCA:1,2013-04-05T00:30:00Z,30.3288,-87.8293,0.0,5.28,283.5,-9999.0,'1111122,1111122,1111122' 
DISL,ioos:station:DISL:BSCA:1,2013-04-05T01:00:00Z,30.3288,-87.8293,0.0,7.44,304.8,-9999.0,'1111122,1111122,1111122' 
DISL,ioos:station:DISL:BSCA:1,2013-04-05T01:30:00Z,30.3288,-87.8293,0.0,8.95,319.2,-9999.0,'1111122,1111122,1111122' 
DISL,ioos:station:DISL:BSCA:1,2013-04-05T02:00:00Z,30.3288,-87.8293,0.0,9.89,319.5,-9999.0,'1111122,1111122,1111122' 
DISL,ioos:station:DISL:BSCA:1,2013-04-05T02:30:00Z,30.3288,-87.8293,0.0,8.29,323.7,-9999.0,'1111122,1111122,1111122' 
DISL,ioos:station:DISL:BSCA:1,2013-04-05T03:00:00Z,30.3288,-87.8293,0.0,8.38,323.5,-9999.0,'1111122,1111122,1111122' 
DISL,ioos:station:DISL:BSCA:1,2013-04-05T03:30:00Z,30.3288,-87.8293,0.0,8.47,327.2,-9999.0,'1111122,1111122,1111122' 
DISL,ioos:station:DISL:BSCA:1,2013-04-05T04:00:00Z,30.3288,-87.8293,0.0,7.99,332.2,-9999.0,'1111122,1111122,1111122' 
DISL,ioos:station:DISL:BSCA:1,2013-04-05T04:30:00Z,30.3288,-87.8293,0.0,8.49,326.5,-9999.0,'1111122,1111122,1111122' 